[[{"header":{"parameterUnit":"m.s-1","parameterCategory":1,"la1":30.2991,"la2":30.254,"lo1":-89.0895,"lo2":-89.0444,"dy":0.0017,"dx":0.0017,"nx":28,"ny":28,"refTime":"2025-12-06T03:00:00:Z","depth":0,"parameterNumber":2,"parameterNumberName":"U-component_of_WINDS"},"data":[0,0,0,0,0,0,0,0,0,0,0,0,0,0,0,0,0,0,0,0,0,0,0,0,0,0,0,0,0,0,0,0,0,0,0,0,0,0,0,0,0,0,0,0,0,0,0,0,0,0,0,0,0,0,0,0,0,0,-3.2035,-3.2036,0,-3.2144,-3.2145,-3.2147,-3.2084,-3.2081,-3.2078,-3.2075,-3.2188,-3.2193,-3.2199,0,0,0,0,0,0,0,0,0,0,0,0,0,-3.1772,-3.1777,-3.2035,-3.2036,-3.2037,-3.2144,-3.2145,-3.2147,-3.2084,-3.2081,-3.2077,-3.2073,-3.2186,-3.2193,-3.22,0,0,0,0,0,0,0,0,0,0,0,0,0,-3.1884,-3.1779,-3.2034,-3.2019,-3.2019,-3.2144,-3.2145,-3.2147,-3.2085,-3.2081,-3.2076,-3.2072,-3.2183,-3.2192,-3.2201,-3.2347,0,0,-3.2227,-3.2231,0,0,0,0,0,0,0,0,-3.1878,-3.1894,-3.202,-3.202,-3.202,-3.2096,-3.2094,-3.2214,-3.2086,-3.206,-3.2075,-3.2069,-3.2161,-3.2171,-3.2202,-3.2352,-3.2357,-3.2228,-3.2234,-3.2237,-3.224,0,0,0,0,0,0,0,-3.187,-3.1889,-3.2078,-3.2022,-3.2022,-3.2007,-3.2018,-3.2116,-3.2135,-3.2062,-3.2058,-3.2071,-3.216,-3.2193,-3.2204,-3.2359,-3.2228,-3.2236,-3.2241,-3.2245,-3.2634,-3.2638,0,0,0,0,0,0,-3.1863,-3.1883,-3.2074,-3.2081,-3.1936,-3.2015,-3.2027,-3.2076,-3.2134,-3.2138,-3.2075,-3.2068,-3.2181,-3.2194,-3.2208,-3.2381,-3.2237,-3.2245,-3.2251,-3.2629,-3.2635,-3.264,0,0,0,0,0,0,-3.1858,-3.1881,-3.207,-3.1981,-3.2004,-3.2025,-3.208,-3.2081,-3.2114,-3.2144,-3.2147,-3.2106,-3.2178,-3.2195,-3.2312,-3.2384,-3.2249,-3.2257,-3.2623,-3.263,-3.2637,-3.2731,0,0,0,0,0,0,-3.1851,-3.1879,-3.1935,-3.1983,-3.2009,-3.2173,-3.2084,-3.2086,-3.2129,-3.2121,-3.2173,-3.2178,-3.2175,-3.23,-3.2321,-3.2394,-3.2264,-3.2616,-3.2626,-3.2635,-3.2721,-3.2741,-3.2757,0,0,0,0,0,-3.1842,-3.1958,-3.1938,-3.1962,-3.2079,-3.2177,-3.2192,-3.2187,-3.2135,-3.2191,-3.221,-3.2176,-3.2374,-3.2312,-3.2336,-3.2412,-3.2612,-3.2623,-3.2634,-3.2713,-3.2737,-3.2757,0,0,0,0,0,0,-3.1918,-3.1963,-3.1943,-3.2077,-3.2124,-3.2166,-3.2237,-3.2212,-3.2275,-3.2264,-3.2256,-3.2268,-3.239,-3.2413,-3.2344,-3.2557,-3.2484,-3.2501,-3.2536,-3.2559,-3.2577,-3.2567,-3.2272,0,0,0,0,0,-3.1951,-3.2027,-3.2062,-3.2178,-3.2202,-3.2216,-3.2259,-3.2251,-3.2299,-3.2318,-3.2346,-3.2394,-3.2466,-3.2514,-3.2583,-3.2725,-3.2735,-3.279,-3.2808,-3.2822,-3.2836,-3.2911,-3.2935,-3.2678,-3.2677,-3.2677,0,0,-3.2019,-3.2053,-3.2101,-3.2194,-3.2229,-3.2308,-3.2233,-3.232,-3.2378,-3.2331,-3.2443,-3.2465,-3.2518,-3.2648,-3.2707,-3.2671,-3.291,-3.2837,-3.2848,-3.2854,-3.2925,-3.295,-3.2972,-3.2685,-3.2684,-3.2683,0,0,-3.2182,-3.2217,-3.2315,-3.2352,-3.2406,-3.2415,-3.2439,-3.2486,-3.2498,-3.261,-3.2577,-3.2646,-3.2772,-3.2811,-3.2847,-3.3026,-3.2996,-3.3049,-3.3141,-3.3215,-3.3235,-3.3253,-3.3315,-3.3338,-3.3063,-3.3063,-3.3063,0,-3.2259,-3.2376,-3.237,-3.2459,-3.25,-3.2462,-3.2562,-3.2598,-3.2672,-3.2702,-3.2661,-3.2818,-3.2851,-3.2989,-3.3032,-3.3064,-3.309,-3.3042,-3.3233,-3.3251,-3.3268,-3.3326,-3.335,-3.3069,-3.3069,-3.3068,-3.3067,0,-3.2468,-3.255,-3.2624,-3.2695,-3.2746,-3.284,-3.2847,-3.2899,-3.2887,-3.29,-3.3014,-3.3053,-3.3128,-3.3161,-3.315,-3.3297,-3.3273,-3.3234,-3.316,-3.3298,-3.3353,-3.3376,-3.3078,-3.3075,-3.3074,-3.3072,0,0,-3.2681,-3.2748,-3.2775,-3.2807,-3.2864,-3.2927,-3.302,-3.3093,-3.3137,-3.319,-3.3266,-3.3374,-3.3338,-3.3379,-3.3373,-3.3438,-3.3575,-3.339,-3.3391,-3.3421,-3.3737,-3.3764,-3.379,-3.3557,-3.3561,-3.3564,-3.3732,0,-3.2846,-3.3007,-3.3004,-3.3153,-3.3228,-3.3194,-3.3274,-3.3318,-3.3333,-3.3399,-3.3415,-3.3491,-3.3438,-3.3462,-3.3526,-3.3545,-3.3638,-3.3533,-3.3626,-3.363,-3.3611,-3.382,-3.3849,-3.4005,-3.3753,-3.3757,-3.376,0,-3.3059,-3.3119,-3.3275,-3.3321,-3.3352,-3.3425,-3.3491,-3.3555,-3.3605,-3.3611,-3.3657,-3.3641,-3.3735,-3.3661,-3.379,-3.3718,-3.3757,-3.3772,-3.3778,-3.3784,-3.3701,-3.3829,-3.4055,-3.4077,-3.3794,-3.3791,-3.3789,0,-3.3195,-3.3315,-3.3424,-3.3452,-3.3509,-3.3561,-3.3587,-3.3632,-3.3676,-3.3735,-3.3763,-3.3833,-3.387,-3.3924,-3.3927,-3.3873,-3.4056,-3.3983,-3.4062,-3.4062,-3.41,-3.4097,-3.4332,-3.413,-3.413,-3.4129,-3.4129,0,-3.3378,-3.3475,-3.3485,-3.3552,-3.3659,-3.3656,-3.3762,-3.3783,-3.3824,-3.3894,-3.387,-3.3936,-3.3937,-3.4005,-3.4008,-3.4113,-3.4131,-3.4137,-3.4137,-3.4138,-3.4137,-3.4161,-3.4149,-3.4135,-3.4134,-3.4133,-3.4132,0,-3.3547,-3.3558,-3.3674,-3.3719,-3.3732,-3.3809,-3.3847,-3.3911,-3.3924,-3.4013,-3.4033,-3.4054,-3.4132,-3.4141,-3.4233,-3.4235,-3.4361,-3.435,-3.4344,-3.4341,-3.4419,-3.441,-3.4675,-3.4709,-3.4488,-3.449,-3.4492,0,-3.3661,-3.3734,-3.3787,-3.3832,-3.3861,-3.3934,-3.3979,-3.3979,-3.4027,-3.4089,-3.4144,-3.4221,-3.4281,-3.4408,-3.4431,-3.4501,-3.449,-3.4578,-3.45,-3.4499,-3.4488,-3.4482,-3.4488,-3.4592,-3.4595,-3.4597,-3.4598,0,-3.3862,-3.3864,-3.3929,-3.3997,-3.4051,-3.4105,-3.4155,-3.4194,-3.42,-3.4255,-3.4335,-3.4382,-3.4475,-3.4551,-3.462,-3.4646,-3.4623,-3.4623,-3.4645,-3.4645,-3.4637,-3.4639,-3.4382,-3.4616,-3.4614,-3.4613,-3.4612,-3.4611,-3.4004,-3.4067,-3.4114,-3.4188,-3.4226,-3.4274,-3.4335,-3.4356,-3.4422,-3.4498,-3.4495,-3.4582,-3.463,-3.472,-3.4752,-3.4821,-3.4791,-3.4823,-3.4831,-3.4838,-3.4844,-3.4629,-3.4834,-3.4833,-3.4833,-3.4832,-3.4832,0,-3.4201,-3.423,-3.4298,-3.4369,-3.4427,-3.4401,-3.4456,-3.4505,-3.4583,-3.4629,-3.469,-3.4781,-3.4854,-3.4884,-3.4955,-3.5004,-3.4995,-3.5023,-3.5017,-3.5024,-3.4868,-3.484,-3.5029,-3.5029,-3.5029,-3.5029,-3.5029,-3.5029,-3.431,-3.4414,-3.4423,-3.4546,-3.4574,-3.4659,-3.4692,-3.4736,-3.4773,-3.4876,-3.4937,-3.4956,-3.4995,-3.507,-3.5136,-3.5142,-3.5168,-3.52,-3.5202,-3.5055,-3.5035,-3.5016,-3.499,-3.5207,-3.5207,-3.5352,-3.5353,-3.5354]},{"header":{"parameterUnit":"m.s-1","parameterCategory":1,"la1":30.2991,"la2":30.254,"lo1":-89.0895,"lo2":-89.0444,"dy":0.0017,"dx":0.0017,"nx":28,"ny":28,"refTime":"2025-12-06T03:00:00:Z","depth":0,"parameterNumber":3,"parameterNumberName":"V-component_of_WINDS"},"data":[0,0,0,0,0,0,0,0,0,0,0,0,0,0,0,0,0,0,0,0,0,0,0,0,0,0,0,0,0,0,0,0,0,0,0,0,0,0,0,0,0,0,0,0,0,0,0,0,0,0,0,0,0,0,0,0,0,0,-0.9137,-0.9136,0,-0.9007,-0.9006,-0.9004,-0.8972,-0.8973,-0.8974,-0.8975,-0.8839,-0.8834,-0.883,0,0,0,0,0,0,0,0,0,0,0,0,0,-0.935,-0.9347,-0.9137,-0.9136,-0.9134,-0.9008,-0.9006,-0.9004,-0.8972,-0.8973,-0.8974,-0.8975,-0.884,-0.8835,-0.883,0,0,0,0,0,0,0,0,0,0,0,0,0,-0.9243,-0.9346,-0.9137,-0.9103,-0.9099,-0.9008,-0.9006,-0.9004,-0.8972,-0.8973,-0.8975,-0.8976,-0.8842,-0.8835,-0.8829,-0.8762,0,0,-0.8809,-0.8806,0,0,0,0,0,0,0,0,-0.9249,-0.9235,-0.911,-0.9105,-0.91,-0.9007,-0.9031,-0.8923,-0.8972,-0.902,-0.8975,-0.8976,-0.8893,-0.8883,-0.8855,-0.8756,-0.875,-0.8808,-0.8804,-0.8801,-0.8799,0,0,0,0,0,0,0,-0.9257,-0.9241,-0.9086,-0.9108,-0.9102,-0.9092,-0.9078,-0.901,-0.8951,-0.9016,-0.9013,-0.8998,-0.8891,-0.8862,-0.8852,-0.8748,-0.8808,-0.8802,-0.8798,-0.8796,-0.8581,-0.858,0,0,0,0,0,0,-0.9271,-0.9247,-0.909,-0.9082,-0.9179,-0.9087,-0.9071,-0.9036,-0.8952,-0.894,-0.8997,-0.8997,-0.8873,-0.886,-0.8847,-0.8759,-0.8801,-0.8795,-0.8791,-0.8583,-0.8581,-0.8579,0,0,0,0,0,0,-0.9276,-0.9257,-0.9095,-0.9164,-0.9142,-0.9082,-0.9042,-0.9033,-0.9003,-0.8938,-0.8927,-0.8979,-0.8873,-0.8856,-0.8782,-0.8754,-0.8792,-0.8786,-0.8585,-0.8582,-0.858,-0.8586,0,0,0,0,0,0,-0.9282,-0.9259,-0.9235,-0.9163,-0.9139,-0.9035,-0.9041,-0.9029,-0.8992,-0.8991,-0.8918,-0.8907,-0.8873,-0.8793,-0.8776,-0.8746,-0.8781,-0.8587,-0.8584,-0.8581,-0.8588,-0.8584,-0.8581,0,0,0,0,0,-0.929,-0.9243,-0.9234,-0.9215,-0.9108,-0.9033,-0.9019,-0.8982,-0.8991,-0.8964,-0.8921,-0.8909,-0.8761,-0.8785,-0.8766,-0.8734,-0.8589,-0.8585,-0.8581,-0.859,-0.8585,-0.8581,0,0,0,0,0,0,-0.9313,-0.9233,-0.9222,-0.9152,-0.9099,-0.9028,-0.8994,-0.8979,-0.8923,-0.8924,-0.8879,-0.8863,-0.8791,-0.8755,-0.8784,-0.8662,-0.8674,-0.8667,-0.8688,-0.8682,-0.8679,-0.8687,-0.8775,0,0,0,0,0,-0.931,-0.9258,-0.919,-0.9134,-0.9108,-0.9056,-0.9022,-0.8998,-0.8942,-0.8919,-0.8871,-0.8816,-0.8756,-0.8718,-0.866,-0.8583,-0.8564,-0.8551,-0.8547,-0.8545,-0.8537,-0.8488,-0.848,-0.8566,-0.8566,-0.8566,0,0,-0.9303,-0.9252,-0.9222,-0.9137,-0.9094,-0.9038,-0.9037,-0.898,-0.8936,-0.891,-0.8836,-0.8799,-0.8734,-0.8657,-0.8621,-0.8625,-0.8509,-0.854,-0.8538,-0.8532,-0.8484,-0.8475,-0.8468,-0.8564,-0.8564,-0.8564,0,0,-0.926,-0.9219,-0.9165,-0.9121,-0.9056,-0.902,-0.9007,-0.8937,-0.8911,-0.8837,-0.8814,-0.8761,-0.8661,-0.8614,-0.8577,-0.8512,-0.8496,-0.8494,-0.8473,-0.8426,-0.8419,-0.8413,-0.8385,-0.8376,-0.8488,-0.8488,-0.8488,0,-0.926,-0.9176,-0.9139,-0.9081,-0.9042,-0.9015,-0.8957,-0.8916,-0.8835,-0.8807,-0.8814,-0.8683,-0.8638,-0.8547,-0.8531,-0.8503,-0.8483,-0.8501,-0.8424,-0.8417,-0.841,-0.8383,-0.8373,-0.8487,-0.8487,-0.8487,-0.8488,0,-0.9176,-0.9118,-0.9082,-0.9003,-0.896,-0.8903,-0.8854,-0.8814,-0.8793,-0.8756,-0.8677,-0.8621,-0.8549,-0.8526,-0.8506,-0.843,-0.8434,-0.8433,-0.8444,-0.8403,-0.8375,-0.8365,-0.8487,-0.8487,-0.8487,-0.8487,0,0,-0.9146,-0.9045,-0.9032,-0.8993,-0.8917,-0.887,-0.8809,-0.8738,-0.8703,-0.8647,-0.8591,-0.8505,-0.8502,-0.846,-0.8433,-0.8392,-0.8337,-0.8395,-0.8392,-0.8382,-0.8244,-0.8243,-0.8232,-0.8327,-0.8325,-0.8324,-0.8248,0,-0.9091,-0.8983,-0.8946,-0.8855,-0.8798,-0.877,-0.8716,-0.8661,-0.8624,-0.8568,-0.8527,-0.8464,-0.8468,-0.8441,-0.8399,-0.8353,-0.8308,-0.8358,-0.8271,-0.8269,-0.8285,-0.8218,-0.8218,-0.8149,-0.8238,-0.8236,-0.8235,0,-0.9014,-0.8955,-0.8858,-0.8784,-0.8759,-0.8711,-0.864,-0.8589,-0.8524,-0.85,-0.845,-0.8425,-0.8357,-0.8373,-0.8275,-0.831,-0.8272,-0.8243,-0.824,-0.8227,-0.8247,-0.82,-0.8127,-0.8115,-0.8219,-0.822,-0.8221,0,-0.8996,-0.8893,-0.882,-0.8789,-0.8702,-0.8668,-0.8629,-0.8567,-0.8524,-0.8462,-0.8433,-0.8364,-0.8325,-0.827,-0.8225,-0.8243,-0.8129,-0.8144,-0.8103,-0.8104,-0.8078,-0.808,-0.7994,-0.8061,-0.8061,-0.8061,-0.8061,0,-0.8937,-0.8878,-0.881,-0.8765,-0.8696,-0.8652,-0.8585,-0.8544,-0.8488,-0.8431,-0.8403,-0.8351,-0.8297,-0.8236,-0.8201,-0.8121,-0.8106,-0.808,-0.8071,-0.8081,-0.8083,-0.8053,-0.8055,-0.8058,-0.8059,-0.806,-0.806,0,-0.8906,-0.8859,-0.8776,-0.8699,-0.8678,-0.863,-0.8563,-0.8516,-0.8476,-0.8405,-0.8386,-0.8323,-0.825,-0.82,-0.8107,-0.8082,-0.7994,-0.7989,-0.8016,-0.8011,-0.7971,-0.7973,-0.7859,-0.7839,-0.7924,-0.7923,-0.7923,0,-0.887,-0.8823,-0.874,-0.87,-0.8662,-0.8599,-0.8555,-0.8508,-0.8463,-0.8383,-0.8345,-0.8269,-0.8206,-0.8089,-0.8034,-0.796,-0.7949,-0.7914,-0.7938,-0.7947,-0.7942,-0.7944,-0.7936,-0.7909,-0.7909,-0.7908,-0.7908,0,-0.8809,-0.8787,-0.8726,-0.8654,-0.8602,-0.8544,-0.8485,-0.8453,-0.8396,-0.8346,-0.827,-0.8221,-0.8123,-0.8046,-0.7967,-0.7924,-0.7904,-0.7901,-0.7886,-0.7894,-0.791,-0.7895,-0.8001,-0.7903,-0.7903,-0.7904,-0.7904,-0.7904,-0.8771,-0.8726,-0.8659,-0.8589,-0.854,-0.8484,-0.8434,-0.8387,-0.8324,-0.824,-0.8217,-0.8136,-0.8067,-0.7958,-0.7914,-0.7847,-0.785,-0.7831,-0.7825,-0.782,-0.7817,-0.7923,-0.7833,-0.7833,-0.7834,-0.7834,-0.7834,0,-0.8705,-0.866,-0.8596,-0.8513,-0.8457,-0.8445,-0.8377,-0.833,-0.826,-0.8198,-0.8135,-0.8044,-0.7968,-0.7906,-0.7826,-0.7785,-0.7773,-0.7765,-0.7766,-0.7755,-0.7822,-0.784,-0.7775,-0.7776,-0.7776,-0.7776,-0.7776,-0.7776,-0.8664,-0.8585,-0.8554,-0.8448,-0.8402,-0.8323,-0.8285,-0.8231,-0.818,-0.8081,-0.8017,-0.7977,-0.7912,-0.7827,-0.7755,-0.7738,-0.7708,-0.7701,-0.7682,-0.7745,-0.7751,-0.7757,-0.7773,-0.7696,-0.7696,-0.7619,-0.7619,-0.7618]}]]